Shaw AFB, SC

3:01 PM EDT on September 25, 2017 (GMT -0400)
Shaw Air Force Base

Weather History for KSSC - December, 2013

Change the Weather History Date:

Thursday, December 19, 2013

  Actual Average Record
Temperature  
Mean Temperature 46 °F -  
Max Temperature 63 °F 54 °F 75 °F (2008)
Min Temperature 28 °F 32 °F 24 °F (1996)
Degree Days  
Heating Degree Days 20    
Moisture  
Dew Point 30 °F    
Average Humidity 61    
Maximum Humidity 91    
Minimum Humidity 24    
Precipitation  
Precipitation 0.00 in - - ()
Sea Level Pressure  
Sea Level Pressure 30.30 in    
Wind  
Wind Speed 2 mph (SSW)    
Max Wind Speed 9 mph    
Max Gust Speed -    
Visibility 10 miles    
Events      
Averages and records for this station are not official NWS values.
T = Trace of Precipitation, MM = Missing Value Source: NWS Daily Summary

Daily Weather History Graph

Daily Weather History Graph

Search for Another Location

Airport or City:

Trip Planner

Search our weather history database for the weather conditions in past years. The results will help you decide how hot, cold, wet, or windy it might be!

Date:

Astronomy

Dec. 19, 2013 Rise Set
Actual Time 7:22 AM EST 5:15 PM EST
Civil Twilight 6:54 AM EST 5:43 PM EST
Nautical Twilight 6:23 AM EST 6:15 PM EST
Astronomical Twilight 5:52 AM EST 6:45 PM EST
Moon 7:34 PM EST (12/19) 8:45 AM EST (12/19)
Length of Visible Light 10h 49m
Length of Day
9h 53m
Waning Gibbous, 95% of the Moon is Illuminated
Dec 19
Waning Gibbous
Dec 25
Last Quarter
Jan 1
New
Jan 7
First Quarter
Jan 15
Full

Hourly Weather History & Observations

Time (EST) Temp. Dew Point Humidity Pressure Visibility Wind Dir Wind Speed Gust Speed Precip Events Conditions
12:58 AM 32.9 °F 27.0 °F 79% 30.30 in 10.0 mi Calm Calm - N/A   Clear
1:58 AM 32.9 °F 27.7 °F 81% 30.30 in 10.0 mi SW 2.3 mph - N/A   Clear
2:58 AM 33.3 °F 29.1 °F 85% 30.32 in 10.0 mi Calm Calm - N/A   Clear
3:58 AM 31.1 °F 26.4 °F 83% 30.32 in 10.0 mi Calm Calm - N/A   Clear
4:58 AM 28.2 °F 24.8 °F 87% 30.32 in 10.0 mi Calm Calm - N/A   Clear
5:58 AM 30.4 °F 26.4 °F 85% 30.33 in 10.0 mi Calm Calm - N/A   Clear
6:58 AM 30.4 °F 28.0 °F 91% 30.33 in 10.0 mi Calm Calm - N/A   Clear
7:58 AM 30.6 °F 26.2 °F 84% 30.34 in 10.0 mi Calm Calm - N/A   Clear
8:58 AM 40.8 °F 34.7 °F 79% 30.35 in 10.0 mi Calm Calm - N/A   Clear
9:58 AM 50.9 °F 28.2 °F 42% 30.36 in 10.0 mi SSW 6.9 mph - N/A   Clear
10:58 AM 54.9 °F 27.0 °F 34% 30.36 in 10.0 mi WSW 8.1 mph - N/A   Clear
11:58 AM 57.6 °F 25.7 °F 29% 30.34 in 10.0 mi South 5.8 mph - N/A   Clear
12:58 PM 60.3 °F 26.2 °F 27% 30.30 in 10.0 mi SW 6.9 mph - N/A   Clear
1:58 PM 63.0 °F 25.2 °F 24% 30.27 in 10.0 mi SSW 9.2 mph - N/A   Scattered Clouds
2:58 PM 62.6 °F 26.4 °F 25% 30.26 in 10.0 mi South 9.2 mph - N/A   Clear
3:58 PM 61.7 °F 27.7 °F 28% 30.26 in 10.0 mi SSW 8.1 mph - N/A   Clear
4:58 PM 57.0 °F 31.1 °F 37% 30.26 in 10.0 mi South 5.8 mph - N/A   Clear
5:58 PM 52.7 °F 32.7 °F 47% 30.26 in 10.0 mi Calm Calm - N/A   Clear
6:58 PM 49.1 °F 35.1 °F 58% 30.28 in 10.0 mi Calm Calm - N/A   Clear
7:58 PM 44.1 °F 34.2 °F 68% 30.28 in 10.0 mi Calm Calm - N/A   Clear
8:58 PM 43.7 °F 34.5 °F 70% 30.27 in 10.0 mi Calm Calm - N/A   Clear
9:58 PM 44.8 °F 36.1 °F 72% 30.27 in 10.0 mi Calm Calm - N/A   Clear
10:58 PM 41.4 °F 34.5 °F 77% 30.26 in 10.0 mi Calm Calm - N/A   Clear
11:58 PM 43.0 °F 36.5 °F 78% 30.25 in 10.0 mi Calm Calm - N/A   Mostly Cloudy